Location: Niarawal
(15.1989°N, 12.7406°W)
Time: 22:18:52
(UTC+00:00)

Daily predictions for brighter satellites

Satellite Brightness Start Highest point End
(mag) Time Altitude Azimuth Time Altitude Azimuth Time Altitude Azimuth
Cosmos 2056 Rocket 3.9 18:58:35 10° S 19:03:42 45° E 19:08:51 10° NNE
Cosmos 1536 Rocket 4.1 19:00:06 10° NNE 19:04:03 35° E 19:08:01 10° SSE
Cosmos 1544 3.0 19:01:14 10° S 19:04:47 64° E 19:08:19 10° NNE
GP-B 3.9 19:06:57 10° NNE 19:10:50 30° E 19:14:42 10° SSE
GOES 2 Rocket 3.9 19:05:54 10° WSW 19:11:19 76° SSE 19:18:38 10° ENE
GPS 2-04 Rocket1 2.5 19:08:49 10° SW 19:12:24 70° SE 19:16:10 10° ENE
USA 32 4.0 19:08:30 10° N 19:13:41 64° E 19:18:51 10° S
DMSP B5D1-3 4.5 19:08:38 10° NNE 19:13:42 71° ESE 19:18:47 10° S
Fermi 3.7 19:10:11 10° WNW 19:14:14 82° SSW 19:18:16 10° ESE
Cosmos 2322 Rocket 4.2 19:09:24 10° NW 19:14:23 33° WSW 19:19:22 10° SSW
Cosmos 1624 Rocket 4.0 19:09:54 10° S 19:15:02 63° ESE 19:20:09 10° NNE
Cosmos 2184 Rocket 4.2 19:12:05 10° N 19:18:11 53° E 19:24:20 10° SSE
Nadezhda 1 Rocket 3.9 19:15:30 10° S 19:21:34 86° E 19:27:39 10° N
ASTEX 1 4.4 19:20:51 10° NE 19:24:45 24° E 19:28:40 10° SSE
Cosmos 1707 4.4 19:23:41 10° NE 19:25:57 15° E 19:26:38 14° E
Cosmos 2219 Rocket 2.9 19:22:56 10° N 19:27:47 30° ENE 19:32:38 10° SE
Cosmos 2082 4.0 19:22:48 10° S 19:28:14 46° ESE 19:33:39 10° NNE
GPS 2-14 Rocket1 3.4 19:28:46 10° WNW 19:32:26 40° N 19:34:58 17° ENE
SL-4 R/B 2.0 19:28:54 10° SSW 19:32:56 53° SE 19:36:19 12° NE
Cosmos 2333 4.2 19:29:08 10° N 19:34:46 61° ENE 19:40:25 10° SSE
YAOGAN 6 2.7 19:35:13 10° S 19:38:49 78° W 19:42:28 10° NNW
Cosmos 1455 Rocket 3.8 19:35:14 10° SSE 19:39:01 29° E 19:42:50 10° NNE
ATLAS 2AS CENTAUR R/B 3.5 19:33:50 10° N 19:39:57 30° ENE 19:43:29 19° ESE
CZ-2D R/B 3.8 19:36:35 10° SE 19:40:03 34° ENE 19:43:29 10° NNE
CZ-4 R/B 1.8 19:37:36 10° S 19:41:24 60° W 19:45:13 10° NNW
Cosmos 2360 Rocket 3.5 19:37:02 10° NW 19:42:21 43° WSW 19:47:41 10° S
Cosmos 2327 Rocket 4.4 19:36:24 10° N 19:42:28 64° E 19:48:28 10° SSE
Cosmos 2227 Rocket 2.6 19:37:17 10° SSW 19:42:52 68° WNW 19:48:28 10° N
CZ-2C R/B 4.4 19:41:39 10° SSW 19:45:05 60° W 20:02:11 10° N
Cosmos 2322 3.8 19:40:38 10° NNW 19:46:20 78° WSW 19:52:00 10° SSE
Envisat 4.1 19:42:19 10° S 19:47:10 47° W 19:52:02 10° NNW
COSMOS 2428 2.8 19:42:52 10° N 19:48:22 52° ENE 19:53:52 10° SSE
Lacrosse 5 1.7 19:47:40 10° SSW 19:52:45 78° ESE 19:57:49 10° NE
Cosmos 2297 Rocket 3.2 19:47:37 10° SW 19:53:03 48° WNW 19:58:30 10° N
CZ-3 Stage 3 2.3 19:48:07 10° WSW 19:54:47 42° NW 19:56:16 22° NNE
CZ-3 Stage 3 1.6 19:51:29 10° WSW 19:57:14 81° SSE 19:57:42 56° ENE
Cosmos 1452 Rocket 3.6 19:52:52 10° S 19:57:56 50° E 20:02:58 10° NNE
GPS 2-15 Rocket1 3.0 19:57:32 10° WSW 20:02:12 85° SSE 20:03:43 43° E
Cosmos 405 Rocket 3.1 19:59:49 10° SSW 20:03:26 61° W 20:07:04 10° N
ATLAS CENTAUR R/B 2.0 20:01:01 10° S 20:05:31 45° ESE 20:05:58 43° E
Cosmos 1939 Rocket 2.6 20:05:36 24° SSE 20:07:51 80° ENE 20:11:41 10° N
Cosmos 2181 Rocket 3.9 20:08:32 10° S 20:14:43 88° E 20:21:00 10° N
Aureole 1 Rocket 3.8 20:13:55 10° NNW 20:17:10 36° W 20:18:31 24° SSW
Centaur AC-102 3.9 20:05:39 10° WSW 20:23:26 69° S 20:25:10 47° ESE
In-Cosmos 22 4.4 20:22:13 10° N 20:26:39 50° NE 20:26:39 50° NE
CZ-3B R/B 3.9 20:10:31 10° SW 20:28:43 43° SSE 20:32:19 36° SE
Ariane Rocket 3.3 20:24:29 10° S 20:29:28 65° WSW 20:34:29 10° NNW
COSMOS 2455 4.4 20:24:36 10° NW 20:29:56 34° WSW 20:35:14 10° S
Ariane H10 4.5 20:27:47 10° WSW 20:30:44 35° S 20:30:44 35° S
Cosmos 2341 Rocket 3.8 20:27:41 10° N 20:33:54 82° E 20:36:54 33° S
GPS 2-17 Rocket1 3.9 20:32:01 10° WNW 20:35:21 41° NNW 20:35:21 41° NNW
Cosmos 2237 Rocket 3.2 20:35:38 10° N 20:38:53 33° NNE 20:38:53 33° NNE
Cosmos 2333 Rocket 3.3 20:36:17 10° NW 20:41:39 42° WSW 20:46:34 12° S
Gbstr 26 Del rocket 4.2 20:41:21 10° SSW 20:45:17 51° SSW 20:45:17 51° SSW
NOSS 3-4 (A) 3.9 20:40:20 10° NNW 20:47:54 70° ENE 20:48:14 69° E
NOSS 3-4 (C) 3.9 20:40:26 10° NNW 20:47:59 69° ENE 20:48:14 68° ENE
ADEOS Rocket 3.6 20:41:46 10° N 20:49:32 82° WNW 20:57:13 10° SSW
NOSS 0 Rocket 3.9 20:43:58 10° NNW 20:50:10 81° WSW 20:50:21 80° SW
Cosmos 2219 Rocket 4.5 21:07:25 10° WNW 21:11:24 20° WSW 21:15:25 10° SSW
ATLAS 2AS CENTAUR R/B 4.0 21:24:38 10° NW 21:30:37 31° WSW 21:31:01 31° WSW
